Tracking 31027 objects as of 19-Jul-2025
HD Live streaming from Space Station
objects crossing your sky now

PEGASUS DEB

Track PEGASUS DEB now!
10-day predictions


NORAD ID: 39924
Int'l Code: 1994-029AFX
Perigee: 548.1 km
Apogee: 702.0 km
Inclination: 81.9 °
Period: 97.1 minutes
Semi major axis: 6996 km
RCS: 0.0161 m2 (small)
Launch date: May 19, 1994
Source: United States (US)
Launch site: AIR FORCE WESTERN TEST RANGE (AFWTR)

Note: This is SATELLITE DEBRIS
Your satellite tracking list
IRIDIUM 33 DEB
Track 1 satellite(s)




NASA's NSSDC Master Catalog

Two Line Element Set (TLE):
1 39924U 94029AFX 25198.54732616  .00002367  00000-0  25548-3 0  9995
2 39924  81.8552 128.9098 0110021 288.1176  70.8079 14.83614548597313
Source of the keplerian elements: AFSPC